Time,TemperatureF,DewpointF,PressureIn,WindDirection,WindDirectionDegrees,WindSpeedMPH,WindSpeedGustMPH,Humidity,HourlyPrecipIn,Conditions,Clouds,dailyrainin,SoftwareType,DateUTC
2013-07-20 00:06:00,54.4,52.0,30.20,North,360,1.0,4.0,91,0.00,,,0.00,weatherlink.com 1.10,2013-07-20 07:06:00,
2013-07-20 00:21:00,54.2,52.0,30.20,WNW,303,2.0,4.0,92,0.00,,,0.00,weatherlink.com 1.10,2013-07-20 07:21:00,
2013-07-20 00:36:00,53.9,52.0,30.20,West,269,3.0,5.0,92,0.00,,,0.00,weatherlink.com 1.10,2013-07-20 07:36:00,
2013-07-20 00:51:00,53.6,51.0,30.20,WNW,290,2.0,5.0,92,0.00,,,0.00,weatherlink.com 1.10,2013-07-20 07:51:00,
2013-07-20 01:06:00,52.8,51.0,30.20,NNW,331,2.0,4.0,92,0.00,,,0.00,weatherlink.com 1.10,2013-07-20 08:06:00,
2013-07-20 01:21:00,52.9,51.0,30.20,WNW,302,0.0,5.0,93,0.00,,,0.00,weatherlink.com 1.10,2013-07-20 08:21:00,
2013-07-20 01:36:00,53.5,52.0,30.20,WNW,300,1.0,7.0,93,0.00,,,0.00,weatherlink.com 1.10,2013-07-20 08:36:00,
2013-07-20 01:51:00,53.7,52.0,30.20,NNE,18,0.0,3.0,93,0.00,,,0.00,weatherlink.com 1.10,2013-07-20 08:51:00,
2013-07-20 02:06:00,53.8,52.0,30.20,West,273,3.0,5.0,93,0.00,,,0.00,weatherlink.com 1.10,2013-07-20 09:06:00,
2013-07-20 02:21:00,53.4,52.0,30.20,WNW,302,1.0,5.0,93,0.00,,,0.00,weatherlink.com 1.10,2013-07-20 09:21:00,
2013-07-20 02:36:00,53.0,51.0,30.20,NW,308,1.0,4.0,92,0.00,,,0.00,weatherlink.com 1.10,2013-07-20 09:36:00,
2013-07-20 02:51:00,53.2,51.0,30.20,NW,318,0.0,4.0,93,0.00,,,0.00,weatherlink.com 1.10,2013-07-20 09:51:00,
2013-07-20 03:06:00,53.7,52.0,30.20,NW,321,0.0,5.0,93,0.00,,,0.00,weatherlink.com 1.10,2013-07-20 10:06:00,
2013-07-20 03:21:00,53.7,52.0,30.20,West,277,1.0,4.0,92,0.00,,,0.00,weatherlink.com 1.10,2013-07-20 10:21:00,
2013-07-20 03:36:00,53.6,51.0,30.20,WNW,289,0.0,6.0,92,0.00,,,0.00,weatherlink.com 1.10,2013-07-20 10:36:00,
2013-07-20 03:51:00,53.4,52.0,30.19,NW,313,1.0,4.0,93,0.00,,,0.00,weatherlink.com 1.10,2013-07-20 10:51:00,
2013-07-20 04:06:00,53.6,51.0,30.19,NW,309,1.0,6.0,92,0.00,,,0.00,weatherlink.com 1.10,2013-07-20 11:06:00,
2013-07-20 04:21:00,53.6,52.0,30.19,NNW,348,0.0,2.0,93,0.00,,,0.00,weatherlink.com 1.10,2013-07-20 11:21:00,
2013-07-20 04:36:00,53.7,52.0,30.19,NW,325,0.0,2.0,93,0.00,,,0.00,weatherlink.com 1.10,2013-07-20 11:36:00,
2013-07-20 04:51:00,53.6,52.0,30.19,WNW,288,1.0,3.0,93,0.00,,,0.00,weatherlink.com 1.10,2013-07-20 11:51:00,
2013-07-20 05:06:00,53.7,52.0,30.19,NNW,335,1.0,6.0,93,0.00,,,0.00,weatherlink.com 1.10,2013-07-20 12:06:00,
2013-07-20 05:21:00,53.8,52.0,30.19,WNW,297,2.0,5.0,93,0.00,,,0.00,weatherlink.com 1.10,2013-07-20 12:21:00,
2013-07-20 05:36:00,53.8,52.0,30.19,NW,304,2.0,4.0,93,0.00,,,0.00,weatherlink.com 1.10,2013-07-20 12:36:00,
2013-07-20 05:51:00,53.8,52.0,30.19,WNW,300,3.0,4.0,93,0.00,,,0.00,weatherlink.com 1.10,2013-07-20 12:51:00,
2013-07-20 06:06:00,53.8,52.0,30.19,WNW,296,0.0,5.0,93,0.00,,,0.00,weatherlink.com 1.10,2013-07-20 13:06:00,
2013-07-20 06:21:00,53.6,51.0,30.19,NW,310,2.0,5.0,92,0.00,,,0.00,weatherlink.com 1.10,2013-07-20 13:21:00,
2013-07-20 06:36:00,53.7,52.0,30.19,NW,306,0.0,5.0,93,0.00,,,0.00,weatherlink.com 1.10,2013-07-20 13:36:00,
2013-07-20 06:51:00,53.7,52.0,30.20,NW,316,0.0,3.0,93,0.00,,,0.00,weatherlink.com 1.10,2013-07-20 13:51:00,
2013-07-20 07:06:00,53.7,52.0,30.19,NW,310,0.0,6.0,93,0.00,,,0.00,weatherlink.com 1.10,2013-07-20 14:06:00,
2013-07-20 07:21:00,53.7,52.0,30.19,WNW,292,1.0,3.0,93,0.00,,,0.00,weatherlink.com 1.10,2013-07-20 14:21:00,
2013-07-20 07:36:00,53.6,52.0,30.19,WNW,290,0.0,3.0,93,0.00,,,0.00,weatherlink.com 1.10,2013-07-20 14:36:00,
2013-07-20 07:51:00,53.7,52.0,30.19,WSW,258,0.0,3.0,93,0.00,,,0.00,weatherlink.com 1.10,2013-07-20 14:51:00,
2013-07-20 08:06:00,53.8,52.0,30.19,North,11,0.0,5.0,93,0.00,,,0.00,weatherlink.com 1.10,2013-07-20 15:06:00,
2013-07-20 08:21:00,53.9,52.0,30.20,NW,317,2.0,4.0,93,0.00,,,0.00,weatherlink.com 1.10,2013-07-20 15:21:00,
2013-07-20 08:36:00,54.0,52.0,30.20,NW,304,0.0,6.0,93,0.00,,,0.00,weatherlink.com 1.10,2013-07-20 15:36:00,
2013-07-20 08:51:00,54.0,52.0,30.20,West,269,1.0,7.0,93,0.00,,,0.00,weatherlink.com 1.10,2013-07-20 15:51:00,
2013-07-20 09:06:00,53.9,52.0,30.20,West,275,2.0,4.0,93,0.00,,,0.00,weatherlink.com 1.10,2013-07-20 16:06:00,
2013-07-20 09:21:00,54.0,52.0,30.20,NW,309,2.0,7.0,93,0.00,,,0.00,weatherlink.com 1.10,2013-07-20 16:21:00,
2013-07-20 09:36:00,54.1,52.0,30.20,West,273,1.0,6.0,93,0.00,,,0.00,weatherlink.com 1.10,2013-07-20 16:36:00,
2013-07-20 09:51:00,54.1,52.0,30.20,West,281,2.0,6.0,93,0.00,,,0.00,weatherlink.com 1.10,2013-07-20 16:51:00,
2013-07-20 10:06:00,54.3,52.0,30.20,WSW,257,5.0,6.0,92,0.00,,,0.00,weatherlink.com 1.10,2013-07-20 17:06:00,
2013-07-20 10:21:00,54.2,52.0,30.20,WNW,287,2.0,6.0,92,0.00,,,0.00,weatherlink.com 1.10,2013-07-20 17:21:00,
2013-07-20 10:36:00,54.7,53.0,30.19,WNW,294,0.0,5.0,92,0.00,,,0.00,weatherlink.com 1.10,2013-07-20 17:36:00,
2013-07-20 10:51:00,55.1,53.0,30.19,NNE,27,0.0,3.0,92,0.00,,,0.00,weatherlink.com 1.10,2013-07-20 17:51:00,
2013-07-20 11:06:00,55.6,53.0,30.19,NNW,330,1.0,6.0,92,0.00,,,0.00,weatherlink.com 1.10,2013-07-20 18:06:00,
2013-07-20 11:21:00,55.7,53.0,30.19,West,262,2.0,7.0,90,0.00,,,0.00,weatherlink.com 1.10,2013-07-20 18:21:00,
2013-07-20 11:36:00,56.0,53.0,30.19,West,262,3.0,5.0,90,0.00,,,0.00,weatherlink.com 1.10,2013-07-20 18:36:00,
2013-07-20 11:51:00,56.0,53.0,30.19,WNW,286,3.0,7.0,89,0.00,,,0.00,weatherlink.com 1.10,2013-07-20 18:51:00,
2013-07-20 12:06:00,56.3,53.0,30.19,NW,318,0.0,6.0,89,0.00,,,0.00,weatherlink.com 1.10,2013-07-20 19:06:00,
2013-07-20 12:21:00,56.6,54.0,30.19,NW,311,2.0,6.0,89,0.00,,,0.00,weatherlink.com 1.10,2013-07-20 19:21:00,
2013-07-20 12:52:00,56.9,53.0,30.19,NW,311,2.0,8.0,88,0.00,,,0.00,weatherlink.com 1.10,2013-07-20 19:52:00,
2013-07-20 13:07:00,56.7,53.0,30.19,NW,316,3.0,8.0,87,0.00,,,0.00,weatherlink.com 1.10,2013-07-20 20:07:00,
2013-07-20 13:37:00,57.2,54.0,30.18,WNW,302,4.0,8.0,88,0.00,,,0.00,weatherlink.com 1.10,2013-07-20 20:37:00,
2013-07-20 14:07:00,57.9,54.0,30.18,WNW,286,2.0,9.0,86,0.00,,,0.00,weatherlink.com 1.10,2013-07-20 21:07:00,
2013-07-20 14:37:00,58.5,54.0,30.18,WSW,253,5.0,11.0,85,0.00,,,0.00,weatherlink.com 1.10,2013-07-20 21:37:00,
2013-07-20 14:52:00,58.5,54.0,30.17,NW,316,2.0,7.0,85,0.00,,,0.00,weatherlink.com 1.10,2013-07-20 21:52:00,
2013-07-20 15:07:00,57.9,54.0,30.18,NW,314,4.0,8.0,85,0.00,,,0.00,weatherlink.com 1.10,2013-07-20 22:07:00,
2013-07-20 15:22:00,57.5,54.0,30.18,NW,323,6.0,12.0,87,0.00,,,0.00,weatherlink.com 1.10,2013-07-20 22:22:00,
2013-07-20 15:37:00,57.2,54.0,30.17,NW,313,6.0,12.0,88,0.00,,,0.00,weatherlink.com 1.10,2013-07-20 22:37:00,
2013-07-20 16:37:00,58.6,55.0,30.15,NE,45,3.0,12.0,86,0.00,,,0.00,weatherlink.com 1.10,2013-07-20 23:37:00,
2013-07-20 16:52:00,59.0,55.0,30.14,NW,307,6.0,9.0,85,0.00,,,0.00,weatherlink.com 1.10,2013-07-20 23:52:00,
2013-07-20 17:07:00,59.6,55.0,30.14,NNW,332,7.0,11.0,85,0.00,,,0.00,weatherlink.com 1.10,2013-07-21 00:07:00,
2013-07-20 17:22:00,60.0,55.0,30.14,NW,308,6.0,13.0,82,0.00,,,0.00,weatherlink.com 1.10,2013-07-21 00:22:00,
2013-07-20 17:52:00,59.9,55.0,30.13,NNW,344,2.0,9.0,83,0.00,,,0.00,weatherlink.com 1.10,2013-07-21 00:52:00,
2013-07-20 18:22:00,58.9,54.0,30.13,NNE,14,4.0,11.0,84,0.00,,,0.00,weatherlink.com 1.10,2013-07-21 01:22:00,
2013-07-20 18:37:00,58.7,54.0,30.13,NNW,346,2.0,9.0,84,0.00,,,0.00,weatherlink.com 1.10,2013-07-21 01:37:00,
2013-07-20 19:07:00,58.1,54.0,30.12,NW,320,4.0,5.0,85,0.00,,,0.00,weatherlink.com 1.10,2013-07-21 02:07:00,
2013-07-20 19:37:00,56.1,53.0,30.12,NW,308,6.0,8.0,88,0.00,,,0.00,weatherlink.com 1.10,2013-07-21 02:37:00,
2013-07-20 19:52:00,55.6,53.0,30.12,NNW,327,2.0,9.0,89,0.00,,,0.00,weatherlink.com 1.10,2013-07-21 02:52:00,
2013-07-20 20:07:00,55.2,52.0,30.12,NNW,327,1.0,6.0,90,0.00,,,0.00,weatherlink.com 1.10,2013-07-21 03:07:00,
2013-07-20 20:22:00,54.4,52.0,30.12,North,9,3.0,7.0,90,0.00,,,0.00,weatherlink.com 1.10,2013-07-21 03:22:00,
2013-07-20 20:37:00,53.8,51.0,30.11,NNW,340,2.0,5.0,91,0.00,,,0.00,weatherlink.com 1.10,2013-07-21 03:37:00,
2013-07-20 20:52:00,53.6,51.0,30.11,NW,306,2.0,6.0,92,0.00,,,0.00,weatherlink.com 1.10,2013-07-21 03:52:00,
2013-07-20 21:07:00,53.4,51.0,30.12,NNW,346,0.0,5.0,92,0.00,,,0.00,weatherlink.com 1.10,2013-07-21 04:07:00,
2013-07-20 21:22:00,53.4,52.0,30.12,North,355,3.0,7.0,93,0.00,,,0.00,weatherlink.com 1.10,2013-07-21 04:22:00,
2013-07-20 21:37:00,53.3,51.0,30.12,NNE,15,1.0,8.0,93,0.00,,,0.00,weatherlink.com 1.10,2013-07-21 04:37:00,
2013-07-20 21:52:00,53.2,51.0,30.11,North,355,1.0,7.0,93,0.00,,,0.00,weatherlink.com 1.10,2013-07-21 04:52:00,
2013-07-20 22:07:00,53.3,52.0,30.11,NW,315,0.0,3.0,94,0.00,,,0.00,weatherlink.com 1.10,2013-07-21 05:07:00,
2013-07-20 22:22:00,53.4,52.0,30.11,NNW,329,0.0,2.0,94,0.00,,,0.00,weatherlink.com 1.10,2013-07-21 05:22:00,
2013-07-20 22:37:00,53.5,52.0,30.11,NW,318,0.0,3.0,94,0.00,,,0.00,weatherlink.com 1.10,2013-07-21 05:37:00,
2013-07-20 22:52:00,53.5,52.0,30.11,NW,305,2.0,3.0,94,0.00,,,0.00,weatherlink.com 1.10,2013-07-21 05:52:00,
2013-07-20 23:07:00,53.2,52.0,30.12,NNE,12,0.0,4.0,94,0.00,,,0.00,weatherlink.com 1.10,2013-07-21 06:07:00,
2013-07-20 23:22:00,53.2,52.0,30.12,NNE,19,0.0,6.0,94,0.00,,,0.00,weatherlink.com 1.10,2013-07-21 06:22:00,
2013-07-20 23:37:00,53.4,52.0,30.12,NNE,31,0.0,6.0,94,0.00,,,0.00,weatherlink.com 1.10,2013-07-21 06:37:00,
2013-07-20 23:52:00,53.4,52.0,30.12,WSW,248,3.0,5.0,94,0.00,,,0.00,weatherlink.com 1.10,2013-07-21 06:52:00,